Time,TemperatureF,DewpointF,PressureIn,WindDirection,WindDirectionDegrees,WindSpeedMPH,WindSpeedGustMPH,Humidity,HourlyPrecipIn,Conditions,Clouds,dailyrainin,SoftwareType,DateUTC
2013-07-16 00:22:00,72.0,69.0,30.17,ENE,69,0.0,0.0,89,0.00,,,0.00,,2013-07-16 04:22:00,
2013-07-16 00:32:00,71.0,67.0,30.18,ENE,69,0.0,0.0,88,0.00,,,0.00,,2013-07-16 04:32:00,
2013-07-16 00:43:00,71.0,68.0,30.18,ENE,69,0.0,0.0,89,0.00,,,0.00,,2013-07-16 04:43:00,
2013-07-16 00:53:00,71.0,68.0,30.18,ENE,69,0.0,0.0,89,0.00,,,0.00,,2013-07-16 04:53:00,
2013-07-16 01:01:00,71.0,68.0,30.18,ENE,69,0.0,0.0,89,0.00,,,0.00,,2013-07-16 05:01:00,
2013-07-16 01:22:00,71.0,68.0,30.18,ENE,69,0.0,0.0,89,0.00,,,0.00,,2013-07-16 05:22:00,
2013-07-16 01:52:00,71.0,68.0,30.17,ENE,69,0.0,0.0,89,0.00,,,0.00,,2013-07-16 05:52:00,
2013-07-16 02:01:00,70.0,67.0,30.17,ENE,69,0.0,0.0,89,0.00,,,0.00,,2013-07-16 06:01:00,
2013-07-16 02:11:00,70.0,67.0,30.17,ENE,69,0.0,0.0,89,0.00,,,0.00,,2013-07-16 06:11:00,
2013-07-16 02:22:00,70.0,67.0,30.17,ENE,69,0.0,0.0,89,0.00,,,0.00,,2013-07-16 06:22:00,
2013-07-16 02:43:00,70.0,67.0,30.17,ENE,69,0.0,0.0,89,0.00,,,0.00,,2013-07-16 06:43:00,
2013-07-16 02:52:00,70.0,67.0,30.17,ENE,69,0.0,0.0,89,0.00,,,0.00,,2013-07-16 06:52:00,
2013-07-16 03:22:00,70.0,67.0,30.17,ENE,69,0.0,0.0,89,0.00,,,0.00,,2013-07-16 07:22:00,
2013-07-16 03:32:00,70.0,67.0,30.17,ENE,69,0.0,0.0,89,0.00,,,0.00,,2013-07-16 07:32:00,
2013-07-16 03:43:00,70.0,67.0,30.17,ENE,69,0.0,0.0,89,0.00,,,0.00,,2013-07-16 07:43:00,
2013-07-16 03:52:00,70.0,67.0,30.17,ENE,69,0.0,0.0,89,0.00,,,0.00,,2013-07-16 07:52:00,
2013-07-16 04:01:00,70.0,67.0,30.17,ENE,69,0.0,0.0,89,0.00,,,0.00,,2013-07-16 08:01:00,
2013-07-16 04:11:00,70.0,67.0,30.17,ENE,69,0.0,0.0,89,0.00,,,0.00,,2013-07-16 08:11:00,
2013-07-16 04:22:00,70.0,67.0,30.17,ENE,69,0.0,0.0,89,0.00,,,0.00,,2013-07-16 08:22:00,
2013-07-16 04:32:00,70.0,67.0,30.17,ENE,69,0.0,0.0,89,0.00,,,0.00,,2013-07-16 08:32:00,
2013-07-16 04:43:00,70.0,67.0,30.17,ENE,69,0.0,0.0,89,0.00,,,0.00,,2013-07-16 08:43:00,
2013-07-16 04:52:00,70.0,67.0,30.17,ENE,69,0.0,0.0,89,0.00,,,0.00,,2013-07-16 08:52:00,
2013-07-16 05:01:00,70.0,67.0,30.16,ENE,69,0.0,0.0,89,0.00,,,0.00,,2013-07-16 09:01:00,
2013-07-16 05:22:00,70.0,67.0,30.16,ENE,69,0.0,0.0,89,0.00,,,0.00,,2013-07-16 09:22:00,
2013-07-16 05:32:00,70.0,67.0,30.17,ENE,69,0.0,0.0,90,0.00,,,0.00,,2013-07-16 09:32:00,
2013-07-16 05:42:00,70.0,67.0,30.17,ENE,69,0.0,0.0,90,0.00,,,0.00,,2013-07-16 09:42:00,
2013-07-16 05:52:00,70.0,67.0,30.17,ENE,69,0.0,0.0,90,0.00,,,0.00,,2013-07-16 09:52:00,
2013-07-16 06:11:00,70.0,67.0,30.17,ENE,69,0.0,0.0,90,0.00,,,0.00,,2013-07-16 10:11:00,
2013-07-16 06:43:00,69.0,66.0,30.18,ENE,69,0.0,0.0,90,0.00,,,0.00,,2013-07-16 10:43:00,
2013-07-16 06:52:00,69.0,66.0,30.18,ENE,69,0.0,0.0,90,0.00,,,0.00,,2013-07-16 10:52:00,
2013-07-16 07:22:00,69.0,66.0,30.18,ENE,69,0.0,0.0,90,0.00,,,0.00,,2013-07-16 11:22:00,
2013-07-16 07:32:00,70.0,67.0,30.18,ENE,69,0.0,0.0,90,0.00,,,0.00,,2013-07-16 11:32:00,
2013-07-16 07:42:00,70.0,67.0,30.18,ENE,69,0.0,0.0,90,0.00,,,0.00,,2013-07-16 11:42:00,
2013-07-16 07:53:00,70.0,67.0,30.18,ENE,69,0.0,0.0,90,0.00,,,0.00,,2013-07-16 11:53:00,
2013-07-16 08:22:00,72.0,69.0,30.18,ENE,69,0.0,0.0,89,0.00,,,0.00,,2013-07-16 12:22:00,
2013-07-16 08:53:00,74.0,69.0,30.19,ENE,69,0.0,0.0,85,0.00,,,0.00,,2013-07-16 12:53:00,
2013-07-16 09:01:00,74.0,69.0,30.19,ENE,69,0.0,0.0,85,0.00,,,0.00,,2013-07-16 13:01:00,
2013-07-16 09:11:00,75.0,69.0,30.19,ENE,69,0.0,0.0,82,0.00,,,0.00,,2013-07-16 13:11:00,
2013-07-16 09:22:00,76.0,69.0,30.19,ENE,69,0.0,0.0,80,0.00,,,0.00,,2013-07-16 13:22:00,
2013-07-16 09:32:00,77.0,70.0,30.19,ENE,69,0.0,0.0,79,0.00,,,0.00,,2013-07-16 13:32:00,
2013-07-16 09:42:00,78.0,71.0,30.19,ENE,69,0.0,0.0,78,0.00,,,0.00,,2013-07-16 13:42:00,
2013-07-16 09:52:00,78.0,71.0,30.19,ENE,69,0.0,0.0,78,0.00,,,0.00,,2013-07-16 13:52:00,
2013-07-16 10:22:00,80.0,71.0,30.19,ENE,72,0.0,0.0,74,0.00,,,0.00,,2013-07-16 14:22:00,
2013-07-16 10:32:00,81.0,72.0,30.19,ENE,72,0.0,0.0,73,0.00,,,0.00,,2013-07-16 14:32:00,
2013-07-16 10:52:00,82.0,72.0,30.18,ENE,72,0.0,0.0,72,0.00,,,0.00,,2013-07-16 14:52:00,
2013-07-16 11:01:00,83.0,72.0,30.18,ENE,72,0.0,0.0,69,0.00,,,0.00,,2013-07-16 15:01:00,
2013-07-16 11:11:00,83.0,72.0,30.18,ENE,72,0.0,0.0,69,0.00,,,0.00,,2013-07-16 15:11:00,
2013-07-16 11:22:00,83.0,71.0,30.18,ENE,71,0.0,0.0,67,0.00,,,0.00,,2013-07-16 15:22:00,
2013-07-16 11:32:00,83.0,71.0,30.18,ENE,71,0.0,0.0,67,0.00,,,0.00,,2013-07-16 15:32:00,
2013-07-16 11:43:00,85.0,71.0,30.17,ENE,59,0.0,0.0,64,0.00,,,0.00,,2013-07-16 15:43:00,
2013-07-16 12:01:00,85.0,71.0,30.17,ENE,59,0.0,0.0,64,0.00,,,0.00,,2013-07-16 16:01:00,
2013-07-16 12:22:00,85.0,70.0,30.17,East,88,0.0,0.0,62,0.00,,,0.00,,2013-07-16 16:22:00,
2013-07-16 12:32:00,85.0,72.0,30.16,East,89,0.0,0.0,65,0.00,,,0.00,,2013-07-16 16:32:00,
2013-07-16 12:43:00,86.0,72.0,30.16,ESE,116,0.0,0.0,64,0.00,,,0.00,,2013-07-16 16:43:00,
2013-07-16 12:52:00,86.0,72.0,30.16,ESE,116,0.0,0.0,64,0.00,,,0.00,,2013-07-16 16:52:00,
2013-07-16 13:02:00,86.0,72.0,30.16,ESE,116,0.0,0.0,63,0.00,,,0.00,,2013-07-16 17:02:00,
2013-07-16 13:12:00,86.0,72.0,30.16,ESE,116,0.0,0.0,63,0.00,,,0.00,,2013-07-16 17:12:00,
2013-07-16 13:22:00,86.0,71.0,30.16,ESE,119,0.0,0.0,62,0.00,,,0.00,,2013-07-16 17:22:00,
2013-07-16 13:53:00,85.0,72.0,30.15,West,263,0.0,0.0,65,0.00,,,0.00,,2013-07-16 17:53:00,
2013-07-16 14:01:00,87.0,73.0,30.15,WSW,258,0.0,0.0,64,0.00,,,0.00,,2013-07-16 18:01:00,
2013-07-16 14:11:00,87.0,73.0,30.15,WSW,258,0.0,0.0,64,0.00,,,0.00,,2013-07-16 18:11:00,
2013-07-16 14:22:00,87.0,72.0,30.14,WSW,258,0.0,0.0,61,0.00,,,0.00,,2013-07-16 18:22:00,
2013-07-16 14:43:00,88.0,71.0,30.13,WSW,258,0.0,0.0,58,0.00,,,0.00,,2013-07-16 18:43:00,
2013-07-16 14:52:00,88.0,71.0,30.13,WSW,258,0.0,0.0,58,0.00,,,0.00,,2013-07-16 18:52:00,
2013-07-16 15:01:00,87.0,73.0,30.13,WSW,258,0.0,0.0,64,0.00,,,0.00,,2013-07-16 19:01:00,
2013-07-16 15:22:00,87.0,74.0,30.12,WSW,258,0.0,0.0,65,0.00,,,0.00,,2013-07-16 19:22:00,
2013-07-16 15:43:00,89.0,71.0,30.12,WSW,258,0.0,0.0,56,0.00,,,0.00,,2013-07-16 19:43:00,
2013-07-16 15:52:00,85.0,70.0,30.12,WSW,258,0.0,0.0,62,0.00,,,0.00,,2013-07-16 19:52:00,
2013-07-16 16:03:00,87.0,72.0,30.11,WSW,258,0.0,0.0,62,0.00,,,0.00,,2013-07-16 20:03:00,
2013-07-16 16:12:00,87.0,72.0,30.11,WSW,258,0.0,0.0,62,0.00,,,0.00,,2013-07-16 20:12:00,
2013-07-16 16:22:00,87.0,71.0,30.11,WSW,258,0.0,0.0,60,0.00,,,0.00,,2013-07-16 20:22:00,
2013-07-16 16:32:00,87.0,73.0,30.11,WSW,258,0.0,0.0,64,0.00,,,0.00,,2013-07-16 20:32:00,
2013-07-16 16:43:00,89.0,72.0,30.11,WSW,258,0.0,0.0,58,0.00,,,0.00,,2013-07-16 20:43:00,
2013-07-16 16:52:00,89.0,72.0,30.11,WSW,258,0.0,0.0,58,0.00,,,0.00,,2013-07-16 20:52:00,
2013-07-16 17:11:00,88.0,72.0,30.10,WSW,258,0.0,0.0,60,0.00,,,0.00,,2013-07-16 21:11:00,
2013-07-16 17:43:00,87.0,72.0,30.10,WSW,258,0.0,0.0,62,0.00,,,0.00,,2013-07-16 21:43:00,
2013-07-16 17:52:00,86.0,74.0,30.09,WSW,258,0.0,0.0,67,0.00,,,0.00,,2013-07-16 21:52:00,
2013-07-16 18:01:00,87.0,74.0,30.09,WSW,258,0.0,0.0,66,0.00,,,0.00,,2013-07-16 22:01:00,
2013-07-16 18:22:00,87.0,75.0,30.09,WSW,258,0.0,0.0,67,0.00,,,0.00,,2013-07-16 22:22:00,
2013-07-16 18:33:00,86.0,74.0,30.09,WSW,258,0.0,0.0,67,0.00,,,0.00,,2013-07-16 22:33:00,
2013-07-16 18:43:00,86.0,74.0,30.09,WSW,258,0.0,0.0,67,0.00,,,0.00,,2013-07-16 22:43:00,
2013-07-16 18:52:00,86.0,74.0,30.09,WSW,258,0.0,0.0,67,0.00,,,0.00,,2013-07-16 22:52:00,
2013-07-16 19:02:00,85.0,75.0,30.10,WSW,258,0.0,0.0,72,0.00,,,0.00,,2013-07-16 23:02:00,
2013-07-16 19:11:00,85.0,75.0,30.10,WSW,258,0.0,0.0,72,0.00,,,0.00,,2013-07-16 23:11:00,
2013-07-16 19:22:00,84.0,75.0,30.10,WSW,258,0.0,0.0,74,0.00,,,0.00,,2013-07-16 23:22:00,
2013-07-16 19:32:00,84.0,75.0,30.09,WSW,258,0.0,0.0,74,0.00,,,0.00,,2013-07-16 23:32:00,
2013-07-16 19:43:00,84.0,76.0,30.09,WSW,258,0.0,0.0,77,0.00,,,0.00,,2013-07-16 23:43:00,
2013-07-16 19:52:00,84.0,76.0,30.09,WSW,258,0.0,0.0,77,0.00,,,0.00,,2013-07-16 23:52:00,
2013-07-16 20:01:00,84.0,77.0,30.10,WSW,258,0.0,0.0,79,0.00,,,0.00,,2013-07-17 00:01:00,
2013-07-16 20:11:00,84.0,77.0,30.10,WSW,258,0.0,0.0,79,0.00,,,0.00,,2013-07-17 00:11:00,
2013-07-16 20:22:00,83.0,75.0,30.09,WSW,258,0.0,0.0,77,0.00,,,0.00,,2013-07-17 00:22:00,
2013-07-16 20:33:00,83.0,76.0,30.11,WSW,258,0.0,0.0,79,0.00,,,0.00,,2013-07-17 00:33:00,
2013-07-16 20:42:00,82.0,74.0,30.12,WSW,258,0.0,0.0,76,0.00,,,0.00,,2013-07-17 00:42:00,
2013-07-16 20:52:00,82.0,74.0,30.12,WSW,258,0.0,0.0,76,0.00,,,0.00,,2013-07-17 00:52:00,
2013-07-16 21:01:00,78.0,71.0,30.12,WSW,258,0.0,0.0,80,0.03,,,0.03,,2013-07-17 01:01:00,
2013-07-16 21:12:00,78.0,71.0,30.12,WSW,258,0.0,0.0,80,0.03,,,0.03,,2013-07-17 01:12:00,
2013-07-16 21:22:00,76.0,71.0,30.11,WSW,258,0.0,0.0,84,0.03,,,0.03,,2013-07-17 01:22:00,
2013-07-16 21:32:00,76.0,72.0,30.11,WSW,258,0.0,0.0,86,0.03,,,0.03,,2013-07-17 01:32:00,
2013-07-16 21:43:00,75.0,71.0,30.12,WSW,258,0.0,0.0,88,0.03,,,0.03,,2013-07-17 01:43:00,
2013-07-16 21:53:00,75.0,71.0,30.12,WSW,258,0.0,0.0,88,0.03,,,0.03,,2013-07-17 01:53:00,
2013-07-16 22:01:00,75.0,71.0,30.12,WSW,258,0.0,0.0,88,0.00,,,0.03,,2013-07-17 02:01:00,
2013-07-16 22:11:00,75.0,71.0,30.12,WSW,258,0.0,0.0,88,0.00,,,0.03,,2013-07-17 02:11:00,
2013-07-16 22:22:00,75.0,72.0,30.12,WSW,258,0.0,0.0,89,0.00,,,0.03,,2013-07-17 02:22:00,
2013-07-16 22:32:00,76.0,73.0,30.13,WSW,258,0.0,0.0,89,0.00,,,0.03,,2013-07-17 02:32:00,
2013-07-16 22:53:00,76.0,73.0,30.13,WSW,258,0.0,0.0,89,0.00,,,0.03,,2013-07-17 02:53:00,
2013-07-16 23:01:00,76.0,73.0,30.12,WSW,258,0.0,0.0,89,0.00,,,0.03,,2013-07-17 03:01:00,
2013-07-16 23:11:00,76.0,73.0,30.12,WSW,258,0.0,0.0,89,0.00,,,0.03,,2013-07-17 03:11:00,
2013-07-16 23:53:00,76.0,73.0,30.12,WSW,258,0.0,0.0,89,0.00,,,0.03,,2013-07-17 03:53:00,